Content
SEND FEEDBACK

Daily
Averages
Monthly
Summary
United Kingdom

INVERNESS, SCOTLAND


Home > Europe > United Kingdom > Scotland
Elevation: 30 feet     Latitude: 57 32N     Longitude: 004 03W

WEATHER
 
SELECT A DAY
Number of Records: 229,025;   Date Range: 7/1/96 - 7/9/14
 
SHARE

PRINT THIS DATA

[ ← Previous Day ]
WEATHER ALMANAC - OCTOBER 22, 2013
[ Next Day → ]
[ °C ]   °F
Weather ElementAverageHighLow
Temperature49.8 °F57.2 °F (4:20 pm)42.8 °F (10:20 pm)
Dewpoint48.6 °F55.4 °F (4:20 pm)41 °F (10:20 pm)
Humidity95.9 %100 % (4:50 am)88 % (6:50 pm)
Barometer29.10 in29.27 in (12:50 am)29.03 in (9:50 pm)
Wind Speed2 mph8.1 mph (6:50 pm)
Weather ElementAverage
Visibility4.6 mi
Wind DirectionENE (78.7 °)

Weather ElementTotal
Precipitation---
Heating Degree Days15 (Base 65)
Averaged from 47 records on October 22, 2013
WEATHER CONDITIONS BREAKOUT
WIND DIRECTION BREAKOUT
WEATHER BY HOUR - OCTOBER 22, 2013
[ °C ]   °F
Local TimeTemperatureDewpointHumidityBarometerVisibilityWind DirectionWind SpeedGust SpeedPrecipitationEventsConditions
12:50 AM50.0 °F48.2 °F94 %29.27 in6.2 miENE (70°)3.5 mphLight Drizzle
1:20 AM50.0 °F48.2 °F94 %29.24 in4.3 miENE (70°)4.6 mphDrizzle
1:50 AM50.0 °F48.2 °F94 %29.21 in4.3 miENE (70°)3.5 mphRainLight Rain
2:20 AM50.0 °F48.2 °F94 %29.21 in4.3 miEast (100°)2.3 mphRainLight Rain
2:50 AM50.0 °F48.2 °F94 %29.21 in5.0 miCalmMostly Cloudy
3:20 AM50.0 °F48.2 °F94 %29.18 in5.0 miCalmRainLight Rain
3:50 AM50.0 °F48.2 °F94 %29.15 in4.3 miCalmRainLight Rain
4:20 AM50.0 °F48.2 °F94 %29.15 in1.6 miEast (80°)3.5 mphMostly Cloudy
4:50 AM48.2 °F48.2 °F100 %29.12 in0.7 miCalmMostly Cloudy
5:20 AM48.2 °F48.2 °F100 %29.12 in0.7 miSSW (210°)2.3 mphMostly Cloudy
5:50 AM48.2 °F46.4 °F93 %29.12 in0.7 miWSW (250°)4.6 mphMostly Cloudy
6:20 AM46.4 °F46.4 °F100 %29.12 in0.2 miSSW (210°)3.5 mphFogFog
6:50 AM48.2 °F46.4 °F93 %29.12 in0.2 miSSW (210°)3.5 mphFogFog
7:20 AM48.2 °F46.4 °F93 %29.12 in0.2 miSouth (190°)3.5 mphFogFog
7:50 AM48.2 °F48.2 °F100 %29.09 in0.2 miSouth (190°)4.6 mphFogFog
8:20 AM48.2 °F48.2 °F100 %29.09 in0.2 miWSW (250°)4.6 mphFogFog
8:50 AM48.2 °F48.2 °F100 %29.12 in0.2 miWSW (240°)2.3 mphFogFog
9:20 AM48.2 °F48.2 °F100 %29.12 in0.2 miSSW (200°)3.5 mphFogFog
9:50 AM48.2 °F48.2 °F100 %29.12 in6.2 miCalmScattered Clouds
10:20 AM50.0 °F50.0 °F100 %29.12 in6.2 miCalmScattered Clouds
10:50 AM50.0 °F50.0 °F100 %29.12 in6.2 miVariable2.3 mphScattered Clouds
11:20 AM51.8 °F50.0 °F94 %29.12 in6.2 miVariable3.5 mphPartly Cloudy
11:50 AM51.8 °F51.8 °F100 %29.12 in6.2 miCalmPartly Cloudy
12:20 PM51.8 °F50.0 °F94 %29.09 in6.2 miNNW (340°)3.5 mphPartly Cloudy
12:50 PM51.8 °F51.8 °F100 %29.09 in6.2 miCalmPartly Cloudy
1:20 PM51.8 °F51.8 °F100 %29.09 in6.2 miCalmFogPartly Cloudy
1:50 PM53.6 °F51.8 °F94 %29.09 in6.2 miCalmFogPartly Cloudy
2:20 PM53.6 °F53.6 °F100 %29.06 in6.2 miCalmFogPartly Cloudy
2:50 PM53.6 °F53.6 °F100 %29.06 in6.2 miCalmFogScattered Clouds
3:20 PM55.4 °F53.6 °F94 %29.06 in6.2 miCalmFogScattered Clouds
3:50 PM55.4 °F53.6 °F94 %29.06 in6.2 miVariable2.3 mphScattered Clouds
4:20 PM57.2 °F55.4 °F94 %29.06 in6.2 miCalmScattered Clouds
4:50 PM57.2 °F55.4 °F94 %29.06 in6.2 miCalmPartly Cloudy
5:20 PM55.4 °F53.6 °F94 %29.06 in6.2 miSouth (180°)3.5 mphFogPartly Cloudy
5:50 PM53.6 °F51.8 °F94 %29.06 in6.2 miVariable2.3 mphFogShallow Fog
6:20 PM51.8 °F50.0 °F94 %29.06 in6.2 miVariable3.5 mphFogShallow Fog
6:50 PM53.6 °F50.0 °F88 %29.06 in6.2 miSouth (190°)8.1 mphFog
7:20 PM51.8 °F48.2 °F88 %29.06 in6.2 miVariable3.5 mphFogPartly Cloudy
7:50 PM48.2 °F46.4 °F93 %29.06 in6.2 miSSW (200°)2.3 mphFogShallow Fog
8:20 PM46.4 °F44.6 °F93 %29.06 in6.2 miCalmFogShallow Fog
8:50 PM44.6 °F42.8 °F93 %29.06 in6.2 miCalmFogPatches of Fog
9:20 PM44.6 °F44.6 °F100 %29.06 in6.2 miCalmFog
9:50 PM44.6 °F44.6 °F100 %29.03 in6.2 miCalmPartly Cloudy
10:20 PM42.8 °F41.0 °F93 %29.03 in6.2 miCalm
10:50 PM42.8 °F42.8 °F100 %29.03 in6.2 miVariable2.3 mph
11:20 PM42.8 °F41.0 °F93 %29.03 in6.2 miSSW (200°)4.6 mph
11:50 PM44.6 °F42.8 °F93 %29.03 in6.2 miWSW (250°)2.3 mph
Hourly data recorded from EGPE, located miles away from Inverness, Scotland







STORIES FROM OUR PARTNERS